Location: Barcelona
(41.3830°N, 2.1830°E)
Time: 13:57:48
(UTC+01:00)

ISS - Pass Details

Date: 12 December 2017
Orbit: 402 x 406 km, 51.6° (Epoch: 16 December)

Event Time Altitude Azimuth Distance (km) Brightness Sun altitude
Rises 18:53:31 0° 309° (NW) 2,331 0.5 -16.5°
Reaches altitude 10° 18:55:42 10° 317° (NW) 1,467 -0.7 -16.9°
Enters shadow 18:58:38 38° 19° (NNE) 632 -3.2 -17.5°
